Lapse_Rate
7.1 7.2 7.0 7.3 6.7 7.2 8.1 8.7 9.5 9.6 9.1 8.5 8.4 8.3 7.7 8.1 8.3 8.2 7.5 7.6 7.9 7.8 7.6 7.4 7.5 7.5 7.4 7.4 7.2 7.2 7.1 7.1 7.1 7.1 7.1 7.2 7.0 6.9 6.8 6.7 6.8 6.8 7.0 7.1 7.1 6.9 6.7 6.6 6.5
7.1 7.3 6.8 6.8 7.0 8.1 8.7 9.6 9.5 8.8 8.2 8.3 8.5 8.2 8.0 7.6 8.0 8.0 7.9 7.8 7.8 7.6 7.4 7.5 7.4 7.4 7.3 7.3 7.2 7.2 7.1 7.3 7.2 7.1 7.1 7.3 7.1 7.1 6.9 6.8 6.9 6.9 7.0 7.1 7.1 7.1 6.9 6.8 6.7
6.9 7.0 6.6 6.9 7.4 8.0 8.6 9.5 9.3 8.7 8.0 7.8 7.8 8.1 7.7 7.3 7.8 7.6 7.7 7.8 7.8 7.4 7.4 7.4 7.3 7.2 7.1 7.1 7.1 7.1 7.1 7.2 7.1 6.9 7.1 7.1 7.1 7.1 6.9 6.9 7.0 7.0 7.1 7.2 7.2 7.2 7.1 6.9 6.7
7.0 6.6 6.6 7.2 7.8 8.5 9.5 9.5 9.0 8.3 7.5 7.7 7.8 7.2 7.4 7.5 7.6 7.4 7.4 7.7 7.6 7.7 7.5 7.4 7.3 7.2 7.2 7.2 7.1 7.1 7.1 7.1 6.8 6.9 6.9 7.0 7.1 7.2 7.0 7.0 6.9 7.0 7.1 7.2 7.2 7.2 7.1 7.0 6.9
6.4 6.7 7.4 7.8 8.3 9.1 9.6 9.1 8.9 8.3 8.6 7.8 7.3 6.8 7.4 7.5 7.4 7.4 7.4 7.6 7.8 7.7 7.7 7.5 7.3 7.2 7.2 7.2 7.3 7.2 7.2 7.2 6.9 6.9 6.9 7.0 7.1 7.1 7.0 7.0 6.9 7.0 7.0 7.0 7.0 6.8 6.8 6.9 6.9
6.6 7.2 7.7 8.3 9.4 9.9 9.6 8.8 8.3 8.2 8.3 8.1 7.9 6.8 7.4 7.7 7.8 7.9 8.0 7.9 7.8 7.9 7.9 7.8 7.5 7.3 7.3 7.2 7.1 7.2 7.3 7.0 6.8 6.7 6.7 6.9 7.1 6.9 7.0 6.9 6.9 6.9 6.9 6.8 6.9 6.7 6.7 6.8 6.9
6.8 7.3 8.0 8.4 9.3 9.7 9.7 8.3 8.1 8.1 8.3 8.6 7.9 7.1 7.6 7.8 8.0 8.1 8.2 8.2 8.2 8.2 8.1 7.8 7.6 7.4 7.2 7.0 7.1 7.0 7.1 6.7 6.5 6.2 6.6 6.6 6.7 7.0 7.0 7.0 6.9 6.9 6.9 6.8 6.8 6.6 6.6 6.7 6.7
7.1 7.5 7.8 8.3 8.9 9.7 9.3 8.3 8.0 8.0 8.2 7.9 7.7 7.4 7.1 7.8 7.8 8.1 8.2 8.4 8.5 8.3 8.2 8.0 8.0 7.5 7.3 7.0 7.0 7.0 6.8 6.7 6.7 6.3 6.3 6.6 6.7 6.9 6.8 6.8 6.8 6.8 6.6 6.6 6.6 6.6 6.6 6.6 6.5
7.2 7.4 7.9 8.6 9.7 9.7 9.1 8.1 8.2 7.9 7.9 7.4 7.1 7.6 7.5 7.9 7.8 8.0 8.1 8.1 8.2 8.2 8.0 7.9 7.7 7.4 7.2 7.2 7.2 7.0 6.9 6.8 6.7 6.2 6.5 6.5 6.7 6.8 6.8 6.9 7.0 6.9 6.8 6.7 6.6 6.5 6.5 6.5 6.4
7.4 7.4 8.2 9.2 9.1 9.1 9.1 8.1 8.5 7.8 8.0 7.3 7.5 7.3 7.5 7.5 7.7 7.8 7.9 7.9 7.8 7.7 7.8 7.7 7.6 7.4 7.2 7.1 7.1 7.0 6.9 6.8 6.6 6.6 6.5 6.7 6.9 6.9 7.0 7.0 7.1 6.9 6.7 6.7 6.6 6.5 6.4 6.4 6.4
7.6 7.7 7.9 8.3 8.3 8.2 8.2 8.3 8.2 8.1 8.3 8.8 6.8 7.4 7.7 7.5 7.6 7.8 7.9 7.9 7.8 7.6 7.5 7.4 7.6 7.4 7.2 7.0 7.0 6.9 6.7 6.5 6.3 6.4 6.6 6.8 7.0 7.0 7.1 7.1 6.9 6.8 6.8 6.7 6.6 6.6 6.5 6.4 6.4
7.6 7.7 7.7 8.0 8.0 7.6 8.0 8.1 8.3 8.0 8.3 8.1 7.0 6.7 7.4 7.5 7.6 7.6 7.5 7.7 7.7 7.6 7.5 7.4 7.4 7.2 7.2 6.9 6.8 6.6 6.5 6.5 6.5 6.5 6.7 6.8 7.0 7.0 7.0 7.0 6.9 6.8 6.8 6.8 6.7 6.6 6.6 6.5 6.5
7.3 7.4 7.5 7.8 7.8 7.7 7.6 7.7 7.9 8.0 8.1 7.6 7.8 6.5 7.4 7.4 7.4 7.3 7.2 7.6 7.5 7.5 7.4 7.4 7.3 7.1 6.9 6.7 6.6 6.5 6.6 6.6 6.8 6.8 7.0 7.1 7.2 7.3 7.3 7.1 7.0 6.9 6.8 6.8 6.7 6.6 6.6 6.6 6.4
7.1 7.1 7.1 7.3 7.5 7.7 7.7 7.8 7.8 7.8 8.2 7.7 7.7 7.5 7.2 7.4 7.3 6.7 7.0 7.5 7.5 7.4 7.3 7.2 7.2 7.0 6.4 6.3 6.4 6.4 6.4 6.6 6.8 7.0 7.1 7.2 7.3 7.3 7.2 7.2 7.1 7.0 6.9 6.9 6.8 6.7 6.6 6.6 6.4
6.9 6.9 7.0 7.2 7.5 7.6 7.8 7.5 7.7 8.3 7.8 7.6 7.7 7.6 6.8 6.9 6.6 6.3 7.1 7.3 7.3 7.3 7.1 7.1 7.0 7.0 6.6 6.5 6.4 6.3 6.5 6.8 7.0 7.1 7.2 7.2 7.2 7.2 7.3 7.2 7.1 7.1 6.9 6.8 6.7 6.6 6.7 6.6 6.6
6.7 7.2 7.4 7.9 8.3 8.3 7.3 7.2 8.1 8.2 7.9 7.9 7.5 7.4 7.2 6.4 5.9 6.1 7.3 7.2 7.2 7.1 7.0 7.0 7.1 7.0 6.8 6.4 6.4 6.6 6.8 7.0 7.2 7.3 7.3 7.4 7.3 7.3 7.3 7.2 7.0 6.9 6.8 6.8 6.8 6.8 6.6 6.5 6.4
7.7 8.0 8.5 8.7 9.1 8.9 7.5 7.4 8.0 7.8 7.9 7.7 7.2 6.9 7.3 7.0 6.5 6.9 7.2 6.9 6.8 6.9 6.9 6.9 6.8 6.8 6.6 6.5 6.5 6.8 7.0 7.2 7.3 7.3 7.4 7.4 7.3 7.2 7.1 7.0 6.9 6.9 6.9 6.7 6.6 6.5 6.4 6.4 6.4
8.4 8.1 8.0 8.4 9.4 8.8 8.4 7.9 8.1 8.1 7.6 7.5 7.2 6.7 6.9 6.5 6.8 7.0 7.2 7.1 7.0 7.3 7.0 6.8 6.9 6.6 6.4 6.4 6.5 6.6 6.8 7.0 7.1 7.1 7.1 7.1 7.1 7.1 7.1 7.1 7.1 6.9 6.6 6.5 6.5 6.4 6.4 6.6 6.6
7.5 7.6 7.7 8.0 8.2 8.5 8.4 8.4 9.0 8.4 8.8 8.3 8.0 7.4 6.6 6.8 6.2 6.3 6.8 6.8 7.1 7.3 7.0 6.9 6.7 6.5 6.5 6.5 6.6 6.7 6.8 6.8 6.8 6.9 6.9 6.9 7.1 7.2 7.1 7.0 6.8 6.6 6.5 6.4 6.4 6.4 6.6 6.6 6.6
7.0 7.3 7.7 7.6 7.9 8.1 8.2 7.9 8.0 8.2 8.3 8.8 8.7 8.6 7.7 6.6 6.5 6.6 6.6 6.9 7.0 7.2 6.9 6.8 6.4 6.3 6.2 6.3 6.4 6.5 6.5 6.6 6.7 6.8 6.9 7.1 7.2 7.1 7.0 6.8 6.6 6.4 6.3 6.4 6.4 6.6 6.5 6.5 6.4
7.2 7.3 7.5 7.8 7.8 7.7 7.8 7.7 7.9 7.8 8.2 8.7 9.2 8.7 8.7 7.5 6.2 6.9 7.4 7.3 7.1 7.0 6.8 6.5 6.3 6.2 6.3 6.5 6.3 6.4 6.5 6.7 6.9 7.2 7.2 7.0 7.0 7.0 6.8 6.7 6.5 6.6 6.6 6.5 6.5 6.5 6.3 6.3 6.4
7.3 7.7 7.6 7.4 7.7 7.3 8.2 8.2 8.2 9.0 9.2 9.1 8.8 8.4 8.7 8.2 6.6 6.6 7.1 6.9 6.9 7.0 7.0 6.9 6.9 6.7 6.4 6.3 6.4 6.3 6.5 6.8 6.8 6.9 6.9 7.0 7.0 6.8 6.6 6.7 6.6 6.6 6.5 6.6 6.6 6.5 6.5 6.5 6.7
7.6 7.5 7.6 7.1 7.3 7.4 7.4 8.4 7.5 8.8 9.5 9.2 8.8 7.9 8.9 8.2 7.1 6.5 7.3 7.2 7.1 7.0 7.1 6.9 6.8 6.5 6.3 6.4 6.5 6.6 6.7 6.7 6.9 6.9 6.9 6.8 6.8 6.7 6.6 6.6 6.7 6.7 6.6 6.6 6.6 6.5 6.7 6.8 6.7
7.4 7.2 7.4 7.3 7.3 7.3 7.3 8.4 7.5 8.7 9.2 9.4 8.5 8.0 8.2 8.1 7.7 7.2 7.2 7.4 7.3 7.4 7.4 7.0 6.6 6.5 6.5 6.5 6.5 6.6 6.7 6.8 6.9 6.8 6.9 6.8 6.8 6.7 6.8 6.9 6.8 6.6 6.6 6.6 6.6 6.7 6.6 6.6 6.6
6.8 7.6 7.6 7.7 8.0 7.5 8.0 9.0 9.0 9.0 8.8 8.7 8.0 7.7 7.6 7.6 7.8 7.7 7.5 7.4 7.2 7.4 7.4 7.1 6.8 6.6 6.4 6.4 6.4 6.5 6.6 6.8 6.9 7.0 7.1 7.1 7.0 6.9 6.9 7.0 7.0 6.8 6.8 6.8 6.8 6.7 6.5 6.5 6.4
7.2 8.6 8.2 8.5 9.2 9.6 9.4 9.5 9.1 9.1 8.6 8.4 8.1 8.0 7.7 8.0 8.2 7.7 7.5 7.6 7.5 7.7 7.6 7.4 7.2 6.6 6.4 6.4 6.4 6.6 6.8 6.9 7.0 7.0 7.1 7.0 7.0 6.9 7.0 7.0 6.9 6.9 6.8 6.7 6.5 6.4 6.3 6.2 6.0
8.0 8.3 9.1 9.3 9.4 9.4 8.8 8.8 8.9 8.9 8.4 7.7 7.7 7.9 7.7 8.2 8.1 8.0 7.8 7.8 7.7 7.9 7.8 7.7 7.1 6.5 6.3 6.4 6.6 6.7 6.9 7.1 7.2 7.1 7.1 7.1 7.1 7.0 7.1 6.9 6.8 6.7 6.6 6.5 6.4 6.2 6.1 6.0 6.0
9.1 8.8 9.1 9.0 8.6 8.5 9.3 9.5 9.7 8.6 7.9 7.4 7.7 7.6 7.6 7.7 8.1 8.2 8.1 8.0 7.7 7.7 7.7 7.6 7.3 6.7 6.5 6.6 6.8 6.9 6.9 7.1 7.3 7.3 7.4 7.3 7.2 7.1 6.9 6.8 6.8 6.7 6.6 6.4 6.1 6.1 6.0 5.9 6.0
9.2 8.4 8.9 9.1 9.2 8.9 8.3 8.2 8.1 7.8 7.2 7.2 7.3 7.6 7.9 8.0 7.5 7.7 7.8 7.6 7.5 7.6 7.6 7.6 7.4 7.1 6.9 6.9 7.1 7.2 7.3 7.4 7.4 7.4 7.4 7.2 7.0 6.9 6.8 6.7 6.7 6.6 6.3 6.0 6.0 6.0 5.8 5.9 5.8
8.6 8.5 8.5 8.5 8.6 8.4 8.3 8.3 9.1 7.9 7.6 7.6 7.2 8.0 8.0 8.2 7.8 8.0 7.7 7.3 7.3 7.6 7.5 7.7 7.6 7.4 7.2 7.3 7.6 7.7 7.7 7.6 7.4 7.3 7.3 7.2 7.0 6.9 6.7 6.7 6.5 6.2 6.0 6.0 5.9 5.7 5.7 5.7 5.7
Wind_Speed
11 13 9 9 6 8 15 20 20 1 4 15 12 10 13 12 6 4 1 8 12 14 16 16 21 20 17 17 14 13 13 12 13 14 14 16 15 15 16 15 14 11 10 9 8 7 7 7 7
11 18 7 7 9 12 13 17 13 18 15 9 6 2 8 8 9 5 2 9 9 14 15 15 19 19 19 19 19 18 17 18 18 18 16 18 17 15 15 15 14 12 12 11 10 11 9 10 10
11 13 7 7 12 15 16 16 6 13 8 3 3 8 7 6 11 4 1 3 11 12 17 18 19 19 18 19 19 20 19 19 18 18 16 16 17 16 17 16 14 12 11 10 10 10 11 11 11
7 7 6 9 17 21 22 9 7 4 6 4 2 11 8 14 7 10 5 7 11 14 19 18 19 19 18 19 19 19 20 19 18 17 17 15 17 17 18 16 14 12 11 10 11 11 11 12 11
9 7 11 17 22 22 15 5 8 5 10 10 6 10 7 10 18 15 8 11 14 13 17 18 18 21 19 18 19 20 20 19 18 17 15 14 17 17 16 15 13 12 11 10 11 10 11 11 11
8 10 14 15 22 10 5 3 7 8 13 8 3 12 8 17 15 12 12 13 12 12 15 18 22 23 21 19 19 19 17 17 17 14 12 12 15 16 15 14 12 12 10 11 11 11 12 11 11
12 10 16 21 23 21 5 9 4 10 12 11 4 9 12 16 15 11 10 13 12 12 13 16 18 21 21 19 18 17 16 15 14 14 10 9 12 13 12 12 12 12 11 10 11 11 12 13 12
11 11 19 19 18 14 8 4 2 8 4 6 5 5 9 19 19 13 11 10 11 10 9 10 15 16 16 16 17 13 13 12 13 9 4 4 9 12 12 10 9 8 8 7 9 10 11 12 14
12 11 13 20 16 4 10 2 7 5 8 5 11 9 23 24 21 16 12 10 8 7 7 7 11 14 15 14 14 11 10 10 11 7 1 9 4 8 9 6 3 2 7 5 7 9 13 14 17
10 12 19 18 13 14 9 2 12 2 11 6 11 18 23 23 20 18 16 13 11 11 10 6 6 11 16 15 15 14 11 8 11 8 4 6 4 3 3 3 2 2 14 8 14 10 13 16 14
13 15 18 20 11 11 11 11 7 10 12 4 20 19 20 21 18 17 17 15 14 12 8 9 7 9 12 10 13 11 11 12 12 8 5 3 7 8 9 9 9 9 12 12 13 12 12 12 11
14 14 15 19 13 6 12 14 16 6 5 9 13 21 18 19 16 15 15 15 14 13 11 9 7 4 6 7 6 9 8 8 9 10 9 5 8 7 7 7 9 10 11 10 12 11 12 11 11
14 16 18 17 9 14 11 16 15 14 9 9 11 20 16 15 15 13 15 14 12 12 11 11 7 6 3 6 7 8 6 8 10 11 10 9 7 3 6 5 8 9 11 9 7 8 7 7 9
16 17 17 17 18 17 15 17 15 17 11 7 9 12 15 15 16 13 16 15 14 13 11 9 9 7 6 6 6 4 9 9 11 10 10 11 10 7 6 5 7 7 9 9 8 6 4 4 6
12 16 19 20 20 21 17 16 18 20 4 8 8 9 13 14 15 16 15 15 14 12 11 8 8 7 7 7 6 7 6 10 10 10 12 12 11 6 7 6 4 7 8 10 9 8 9 5 5
17 19 18 19 20 16 8 14 20 5 10 9 10 8 7 11 12 14 13 12 13 13 11 9 9 9 8 7 6 7 8 10 10 12 11 12 11 11 9 5 5 10 8 9 5 5 5 5 5
16 17 20 17 7 3 11 10 4 7 10 10 9 10 11 12 14 14 14 13 13 13 12 9 8 8 7 6 8 8 8 9 11 12 10 11 10 10 7 7 8 11 9 6 5 5 5 4 5
18 19 17 18 2 10 14 15 14 15 15 13 14 13 12 13 14 14 15 14 13 12 10 9 7 8 7 6 6 4 5 7 11 10 10 11 11 12 11 9 8 10 5 5 5 6 5 4 7
19 18 17 19 22 24 19 19 16 14 16 14 11 16 16 14 13 14 11 11 13 10 10 10 9 8 7 6 7 7 6 6 6 9 11 12 11 10 11 7 8 10 5 6 6 4 6 4 8
12 20 21 21 20 18 20 23 18 14 17 17 17 13 19 19 18 16 12 10 10 9 8 9 9 9 8 5 4 5 4 5 6 10 11 12 12 12 11 8 5 6 4 6 6 6 5 3 6
15 14 18 21 19 18 19 24 19 18 20 19 12 11 4 21 21 19 16 11 9 9 8 10 9 6 5 9 6 5 6 4 4 6 6 8 12 11 11 11 8 6 5 4 5 6 7 4 5
17 15 15 14 14 15 15 18 17 13 14 14 12 7 6 18 21 16 15 13 10 8 6 6 7 7 6 7 8 9 7 6 5 6 5 5 11 11 11 11 10 8 6 5 5 5 4 5 5
19 13 15 14 17 18 18 13 17 15 15 14 11 10 8 14 20 18 16 14 12 10 6 6 7 7 5 4 5 3 8 6 5 5 6 7 7 11 11 10 10 7 6 5 5 5 6 5 4
16 15 20 17 15 15 19 17 18 15 6 5 16 11 8 12 17 17 16 15 13 12 9 7 7 6 6 5 4 7 7 7 5 5 4 4 5 5 8 10 9 9 7 5 4 5 6 5 5
18 16 11 11 13 13 18 16 15 8 7 14 13 13 10 8 12 15 17 15 13 13 11 8 10 9 7 7 6 7 7 7 7 6 5 5 4 4 5 7 7 5 6 6 6 5 6 5 4
16 17 12 16 13 15 18 12 6 8 14 9 11 15 14 11 8 11 16 14 14 14 12 11 11 10 8 7 7 6 7 4 4 5 5 4 5 4 7 8 8 7 7 7 8 4 4 5 5
14 17 20 20 20 16 16 22 22 13 13 11 9 7 9 10 10 11 15 14 15 14 13 10 11 11 10 8 7 6 6 6 6 6 6 5 6 5 7 8 6 8 8 7 8 4 5 5 5
19 16 13 11 15 21 15 18 8 8 10 4 4 5 4 8 10 11 13 13 14 14 12 11 10 10 9 9 7 6 6 7 6 5 7 7 5 6 6 6 7 7 9 10 9 5 6 7 5
13 14 18 17 14 13 11 8 12 8 11 6 4 4 4 2 7 8 10 13 13 12 14 11 9 8 9 9 8 8 7 7 6 7 6 6 6 6 6 6 6 6 6 9 7 7 7 8 8
22 18 17 12 14 15 12 12 3 13 8 9 9 9 11 8 12 6 11 15 12 14 14 13 11 9 6 7 9 8 7 7 7 7 7 6 6 7 7 7 7 7 6 7 7 8 7 7 7
Wind_Direction
293 249 232 248 245 231 257 254 254 276 84 48 46 20 85 41 33 72 297 349 86 102 90 80 85 88 85 83 93 93 92 91 92 93 96 95 87 82 76 67 63 62 61 52 42 25 16 13 17
298 288 247 274 244 264 261 268 34 46 59 59 84 349 268 84 71 109 109 346 77 91 91 86 79 84 85 83 80 81 85 84 86 88 87 88 86 88 84 75 68 63 59 52 47 36 26 20 13
270 269 275 241 245 248 267 293 49 64 38 21 91 56 21 74 113 91 85 76 94 91 85 89 86 86 86 84 83 83 79 81 81 89 92 87 91 84 79 71 65 62 56 45 37 30 24 22 15
252 255 238 260 267 273 273 339 71 350 120 257 258 97 90 29 108 121 136 89 96 97 93 86 90 90 88 88 86 84 80 77 77 79 82 85 85 79 74 69 63 58 54 45 36 24 15 10 9
251 263 261 261 264 261 265 19 348 327 288 177 173 102 87 81 103 115 105 92 89 87 102 92 86 84 81 79 79 81 80 75 68 69 69 76 78 74 69 66 57 48 41 36 31 19 8 0 356
270 250 268 270 275 306 20 11 357 288 276 136 148 116 97 122 121 123 108 100 98 100 96 91 86 84 84 82 80 80 83 90 89 81 75 71 73 71 65 59 50 42 31 27 19 7 354 347 338
247 273 275 280 295 298 304 84 271 261 254 192 184 113 128 144 129 124 99 110 105 101 94 94 94 94 90 88 87 88 85 80 89 75 76 85 84 80 71 59 44 33 20 17 13 0 342 331 324
251 270 279 280 276 292 68 79 6 297 26 46 26 157 159 137 134 128 109 100 119 117 117 125 118 113 107 103 95 94 100 100 97 106 112 130 122 112 87 50 42 25 11 13 4 348 336 327 318
264 269 268 267 308 308 94 335 166 346 304 52 53 38 118 134 135 132 126 121 109 111 109 114 123 123 123 119 120 125 130 137 114 130 63 225 78 17 100 77 82 350 3 349 343 331 326 322 312
232 257 265 277 341 331 355 110 290 220 236 146 105 101 125 140 147 147 151 150 149 144 142 147 144 153 156 140 163 166 155 93 66 41 27 26 92 32 359 139 227 192 9 21 360 350 358 14 356
250 250 274 301 343 321 312 289 250 265 264 31 155 144 148 153 160 160 162 156 151 152 150 157 184 197 188 137 166 160 138 136 107 63 6 36 69 24 29 24 31 12 17 11 2 18 7 350 346
253 272 283 281 298 311 284 289 287 246 292 55 119 148 157 165 169 170 161 148 145 152 150 156 176 171 111 140 123 116 119 115 102 87 19 20 60 54 36 28 27 34 16 13 360 19 352 347 341
289 282 281 273 291 281 263 272 278 279 288 108 112 146 163 173 172 175 133 132 145 143 152 158 147 119 104 84 76 93 120 79 85 77 54 24 49 42 47 28 41 38 29 11 2 5 343 344 350
285 292 294 285 282 270 254 260 259 259 242 125 147 168 166 179 174 157 135 145 152 150 154 146 137 135 137 98 114 101 114 119 85 70 55 38 64 9 60 38 45 23 37 9 9 342 346 335 339
303 286 278 268 255 245 244 257 261 256 162 174 177 192 175 186 175 153 146 143 145 146 143 133 119 116 114 126 128 101 104 96 104 92 64 53 33 40 53 58 33 2 16 20 6 4 357 338 350
279 268 270 269 251 229 156 256 276 129 161 209 186 204 191 171 163 121 124 136 137 141 146 148 144 137 153 128 129 115 113 109 103 98 82 66 42 11 50 54 27 336 20 35 6 3 2 336 2
264 262 264 275 187 210 183 250 189 173 187 191 192 184 185 174 131 133 139 147 156 145 155 138 128 114 107 97 87 97 110 94 89 82 82 79 58 20 68 48 22 349 24 35 12 354 3 337 353
301 311 315 318 207 211 247 263 263 191 205 207 185 182 188 182 164 156 158 160 158 131 130 133 129 128 137 146 144 127 112 98 91 91 78 56 49 41 19 63 39 4 41 27 12 350 342 12 358
305 296 288 288 298 301 296 291 280 262 274 214 208 180 174 188 170 151 161 137 119 132 143 156 143 147 161 161 154 151 135 123 113 90 77 71 53 44 29 33 48 4 57 28 17 340 349 11 356
282 288 286 285 280 274 280 275 276 284 269 264 202 209 176 168 161 145 153 137 138 143 152 143 155 184 186 159 107 108 109 94 100 99 82 72 64 40 58 32 38 26 27 43 24 5 359 10 20
273 271 282 282 294 292 292 280 273 251 252 259 259 179 124 160 155 150 149 149 150 163 160 168 168 175 86 92 98 88 101 140 137 133 90 69 70 62 56 47 46 27 35 26 36 12 36 348 20
270 267 285 296 284 277 279 288 280 264 244 240 163 133 68 159 142 147 152 161 171 157 159 144 122 98 125 165 148 167 171 121 90 89 96 87 70 68 55 57 48 42 53 34 23 35 27 17 28
276 293 276 272 279 284 271 266 274 268 253 210 154 126 119 129 145 155 157 158 165 147 141 127 135 146 147 86 105 102 91 110 103 112 111 118 95 66 62 54 51 42 44 48 31 52 26 47 33
288 274 277 264 265 254 263 260 272 269 10 106 114 135 143 142 146 152 155 164 169 147 147 144 136 133 124 123 139 107 118 120 127 137 119 99 97 87 52 56 67 50 44 25 37 47 54 45 56
266 263 273 263 242 248 249 247 245 137 118 136 133 138 141 142 154 154 158 163 164 153 148 152 170 155 145 146 134 124 121 108 119 130 114 116 96 90 72 69 46 43 50 33 57 45 51 58 49
257 248 232 270 274 278 292 283 349 95 113 116 141 155 150 154 146 156 158 163 158 156 162 183 158 157 155 151 134 132 127 126 107 112 110 87 90 91 93 86 72 61 44 55 39 51 67 48 61
246 259 286 274 265 276 279 284 294 172 132 127 150 146 129 149 160 172 159 168 155 163 173 173 166 160 157 142 138 139 115 119 108 97 100 93 113 121 92 90 85 69 53 33 84 42 39 53 61
251 270 274 277 278 264 268 280 280 81 92 65 66 38 87 155 163 172 168 170 159 166 167 172 164 150 150 145 139 139 122 115 122 118 100 99 94 96 97 83 78 76 65 42 40 57 40 39 35
259 227 253 260 262 268 257 270 134 220 128 202 256 182 223 184 152 161 171 166 163 158 163 167 152 148 149 151 153 137 132 125 124 114 112 104 102 102 102 96 79 54 54 82 64 41 44 56 31
293 266 270 273 245 274 300 271 151 163 198 197 196 181 185 200 157 175 170 162 151 166 165 167 148 140 150 155 139 135 120 136 124 113 106 104 102 99 95 90 84 85 69 32 92 80 58 51 64